Weather in Shilka

Russia / Zabaykalsky Krai     51°51′09″N   116°01′57″E
temp.,
°C
wind,
m/s
gust,
m/s
humid.,
%
clouds,
%
prec.,
mm/h
press.,
hPa
HPBL,
m
27 july, tue
tue2700:00+13nne22955 0.0 100720
03:00+12nne22965 0.0 100721
06:00+11nne22976 0.0 100731
09:00+16nne35798 0.0 1007462
12:00+22nne445929 0.0 10051245
15:00+21ne347574 1.6 10041068
18:00+18ne259099 4.6 1003249
21:00+17nne1191100 6.3 100311
28 july, wed
wed2800:00+16ne119499 1.6 100311
03:00+14nne0196100 1.6 100411
06:00+14nne119988 1.4 100435
09:00+16n239698 1.4 1005222
12:00+19nne237760 0.1 1004674
15:00+22nne436664 0.2 10031094
18:00+22nne226325 0.1 10021016
21:00+17ene11897 0.2 100212
29 july, thu
thu2900:00+15e119362 0.0 100310
03:00+14nne119527 0.0 100311
06:00+13nne11977 0.0 100314
09:00+18nne23765 0.0 1003456
12:00+22nnw33565 0.0 10021116
15:00+23n44547 0.0 10011394
18:00+22nne44585 0.0 10011013
21:00+17ne37865 0.0 1003205
30 july, fri
fri3000:00+13nne129633 0.0 100420
03:00+13n229711 0.0 100529
06:00+12ne119711 0.0 100518
09:00+16ne378472 0.0 1005430
12:00+22ne465779 0.0 10051320
15:00+22ene4667100 1.4 10051112
18:00+24ne4649100 0.4 10051540
21:00+17nne2269100 0.4 100719
31 july, sat
sat3100:00+14ene1177100 0.0 100911
03:00+12nne228387 0.0 101124
06:00+11ne2281100 0.0 101327
09:00+16nne246252 0.0 1014351
12:00+22ne44445 0.0 10131361
15:00+24nne44385 0.0 10121790
18:00+23nne43430 0.0 10121464
21:00+16ne11660 0.0 101311